Beach, ND

3:57 AM MDT on April 24, 2017 (GMT -0600)
Beach

Weather History for K20U - January, 2013

Change the Weather History Date:

Wednesday, January 9, 2013

  Actual Average (KGDV) Record (KGDV)
Temperature  
Mean Temperature 28 °F -  
Max Temperature 39 °F 21 °F 57 °F (2012)
Min Temperature 17 °F 4 °F -13 °F (1998)
Degree Days  
Heating Degree Days 37    
Moisture  
Dew Point 22 °F    
Average Humidity 75    
Maximum Humidity 87    
Minimum Humidity 56    
Precipitation  
Precipitation 0.00 in - - ()
Sea Level Pressure  
Sea Level Pressure 29.90 in    
Wind  
Wind Speed 11 mph (South)    
Max Wind Speed 17 mph    
Max Gust Speed 23 mph    
Visibility 10 miles    
Events      
Averages and records for this station are not official NWS values.
T = Trace of Precipitation, MM = Missing Value Source: NWS Daily Summary

Daily Weather History Graph

Daily Weather History Graph

Search for Another Location

Airport or City:

Trip Planner

Search our weather history database for the weather conditions in past years. The results will help you decide how hot, cold, wet, or windy it might be!

Date:

Astronomy

Jan. 09, 2013 Rise Set
Actual Time 7:39 AM MST 4:26 PM MST
Civil Twilight 7:05 AM MST 5:01 PM MST
Nautical Twilight 6:27 AM MST 5:39 PM MST
Astronomical Twilight 5:50 AM MST 6:16 PM MST
Moon 5:22 AM MST (1/9) 2:30 PM MST (1/9)
Length of Visible Light 9h 56m
Length of Day
8h 47m
Waning Crescent, 6% of the Moon is Illuminated
Jan 9
Waning Crescent
Jan 11
New
Jan 18
First Quarter
Jan 26
Full
Feb 3
Last Quarter

Hourly Weather History & Observations

Time (MST) Temp. Windchill Dew Point Humidity Pressure Visibility Wind Dir Wind Speed Gust Speed Precip Events Conditions
12:15 AM 19.4 °F 6.0 °F 14.0 °F 80% 30.01 in 10.0 mi WSW 13.8 mph - N/A   Clear
12:35 AM 17.6 °F 4.3 °F 12.2 °F 79% 30.01 in 10.0 mi WSW 12.7 mph - N/A   Clear
12:55 AM 17.6 °F 5.0 °F 12.2 °F 79% 30.01 in 10.0 mi WSW 11.5 mph - N/A   Clear
1:15 AM 17.6 °F 5.0 °F 14.0 °F 86% 30.01 in 10.0 mi WSW 11.5 mph - N/A   Clear
1:35 AM 17.6 °F 6.4 °F 12.2 °F 79% 30.01 in 10.0 mi SW 9.2 mph - N/A   Clear
1:55 AM 17.6 °F 6.4 °F 12.2 °F 79% 30.02 in 10.0 mi SW 9.2 mph - N/A   Clear
2:15 AM 17.6 °F 6.4 °F 12.2 °F 79% 30.02 in 10.0 mi SW 9.2 mph - N/A   Clear
2:35 AM 17.6 °F 6.4 °F 10.4 °F 73% 30.03 in 10.0 mi SW 9.2 mph - N/A   Clear
2:55 AM 19.4 °F 10.4 °F 14.0 °F 80% 30.02 in 10.0 mi SW 6.9 mph - N/A   Mostly Cloudy
3:15 AM 21.2 °F 10.9 °F 14.0 °F 74% 30.01 in 10.0 mi SSW 9.2 mph - N/A   Overcast
3:35 AM 23.0 °F 12.4 °F 15.8 °F 74% 30.00 in 10.0 mi SSW 10.4 mph - N/A   Overcast
3:55 AM 19.4 °F 9.5 °F 15.8 °F 86% 29.99 in 10.0 mi South 8.1 mph - N/A   Mostly Cloudy
4:15 AM 19.4 °F 14.3 °F 14.0 °F 80% 30.00 in 10.0 mi SSE 3.5 mph - N/A   Mostly Cloudy
4:35 AM 19.4 °F 12.8 °F 14.0 °F 80% 30.00 in 10.0 mi SSE 4.6 mph - N/A   Overcast
4:55 AM 19.4 °F 12.8 °F 14.0 °F 80% 29.99 in 10.0 mi SSE 4.6 mph - N/A   Mostly Cloudy
5:15 AM 17.6 °F 6.4 °F 14.0 °F 86% 29.98 in 10.0 mi South 9.2 mph - N/A   Partly Cloudy
5:35 AM 17.6 °F 4.3 °F 14.0 °F 86% 29.97 in 10.0 mi SSE 12.7 mph - N/A   Clear
5:55 AM 17.6 °F 3.2 °F 14.0 °F 86% 29.96 in 10.0 mi South 15.0 mph - N/A   Clear
6:15 AM 17.6 °F 2.2 °F 14.0 °F 86% 29.96 in 10.0 mi South 17.3 mph - N/A   Clear
6:35 AM 19.4 °F 5.5 °F 14.0 °F 80% 29.96 in 10.0 mi South 15.0 mph - N/A   Clear
6:55 AM 19.4 °F 6.6 °F 14.0 °F 80% 29.96 in 10.0 mi SSE 12.7 mph - N/A   Clear
7:15 AM 19.4 °F 7.9 °F 14.0 °F 80% 29.95 in 10.0 mi South 10.4 mph - N/A   Clear
7:35 AM 19.4 °F 6.0 °F 15.8 °F 86% 29.95 in 10.0 mi South 13.8 mph - N/A   Clear
7:55 AM 19.4 °F 5.5 °F 14.0 °F 80% 29.95 in 10.0 mi South 15.0 mph - N/A   Clear
8:15 AM 19.4 °F 7.2 °F 15.8 °F 86% 29.95 in 10.0 mi South 11.5 mph - N/A   Clear
8:35 AM 23.0 °F 12.4 °F 15.8 °F 74% 29.96 in 10.0 mi South 10.4 mph - N/A   Clear
8:55 AM 23.0 °F 10.6 °F 17.6 °F 80% 29.96 in 10.0 mi South 13.8 mph - N/A   Clear
9:15 AM 24.8 °F 13.4 °F 17.6 °F 74% 29.95 in 10.0 mi SSW 12.7 mph - N/A   Clear
9:35 AM 26.6 °F 15.7 °F 17.6 °F 69% 29.95 in 10.0 mi SSW 12.7 mph - N/A   Clear
9:55 AM 28.4 °F 19.1 °F 19.4 °F 69% 29.95 in 10.0 mi SSW 10.4 mph - N/A   Clear
10:15 AM 32.0 °F 23.6 °F 23.0 °F 69% 29.94 in 10.0 mi SSW 10.4 mph - N/A   Clear
10:35 AM 32.0 °F 23.0 °F 23.0 °F 69% 29.94 in 10.0 mi SW 11.5 mph - N/A   Clear
10:55 AM 35.6 °F 27.1 °F 24.8 °F 65% 29.93 in 10.0 mi SSW 12.7 mph - N/A   Clear
11:15 AM 35.6 °F 27.1 °F 24.8 °F 65% 29.93 in 10.0 mi SSW 12.7 mph - N/A   Clear
11:35 AM 39.2 °F 30.5 °F 24.8 °F 56% 29.93 in 10.0 mi SW 16.1 mph 23.0 mph N/A   Clear
11:55 AM 39.2 °F 31.2 °F 24.8 °F 56% 29.92 in 10.0 mi SW 13.8 mph - N/A   Clear
12:15 PM 39.2 °F 31.2 °F 24.8 °F 56% 29.91 in 10.0 mi SW 13.8 mph - N/A   Clear
12:35 PM 37.4 °F 29.8 °F 26.6 °F 65% 29.91 in 10.0 mi South 11.5 mph - N/A   Clear
12:55 PM 39.2 °F 33.0 °F 26.6 °F 61% 29.91 in 10.0 mi SSW 9.2 mph - N/A   Clear
1:15 PM 39.2 °F 33.6 °F 26.6 °F 61% 29.90 in 10.0 mi South 8.1 mph - N/A   Clear
1:35 PM 39.2 °F 33.0 °F 26.6 °F 61% 29.91 in 10.0 mi South 9.2 mph - N/A   Clear
1:55 PM 39.2 °F 32.5 °F 28.4 °F 65% 29.92 in 10.0 mi SSE 10.4 mph - N/A   Clear
2:15 PM 37.4 °F 30.8 °F 28.4 °F 70% 29.92 in 10.0 mi South 9.2 mph - N/A   Clear
2:35 PM 37.4 °F 29.8 °F 28.4 °F 70% 29.91 in 10.0 mi SSE 11.5 mph - N/A   Clear
2:55 PM 37.4 °F 29.8 °F 28.4 °F 70% 29.90 in 10.0 mi SSE 11.5 mph 16.1 mph N/A   Clear
3:15 PM 37.4 °F 29.3 °F 28.4 °F 70% 29.90 in 10.0 mi South 12.7 mph - N/A   Clear
3:35 PM 37.4 °F 29.8 °F 28.4 °F 70% 29.89 in 10.0 mi South 11.5 mph - N/A   Clear
3:55 PM 37.4 °F 29.3 °F 30.2 °F 75% 29.88 in 10.0 mi SSE 12.7 mph - N/A   Clear
4:15 PM 37.4 °F 29.3 °F 28.4 °F 70% 29.88 in 10.0 mi SSE 12.7 mph - N/A   Clear
4:35 PM 37.4 °F 28.5 °F 30.2 °F 75% 29.86 in 10.0 mi SSE 15.0 mph - N/A   Clear
4:55 PM 37.4 °F 28.5 °F 28.4 °F 70% 29.86 in 10.0 mi SSE 15.0 mph - N/A   Clear
5:15 PM 37.4 °F 28.5 °F 28.4 °F 70% 29.84 in 10.0 mi SSE 15.0 mph - N/A   Partly Cloudy
5:35 PM 37.4 °F 27.8 °F 28.4 °F 70% 29.85 in 10.0 mi SSE 17.3 mph - N/A   Clear
5:55 PM 37.4 °F 27.8 °F 30.2 °F 75% 29.84 in 10.0 mi SSE 17.3 mph - N/A   Clear
6:55 PM 35.6 °F 27.1 °F 30.2 °F 81% 29.81 in 10.0 mi SSE 12.7 mph - N/A   Clear
7:35 PM 37.4 °F 28.2 °F 28.4 °F 70% 29.77 in 10.0 mi South 16.1 mph - N/A   Clear
7:55 PM 37.4 °F 30.3 °F 28.4 °F 70% 29.77 in 10.0 mi SSE 10.4 mph - N/A   Clear
8:15 PM 35.6 °F 28.6 °F 28.4 °F 75% 29.77 in 10.0 mi SSE 9.2 mph - N/A   Clear
8:35 PM 35.6 °F 29.2 °F 28.4 °F 75% 29.75 in 10.0 mi SE 8.1 mph - N/A   Clear
8:55 PM 32.0 °F 24.2 °F 28.4 °F 87% 29.74 in 10.0 mi SSE 9.2 mph - N/A   Clear
9:15 PM 32.0 °F 23.6 °F 26.6 °F 80% 29.73 in 10.0 mi SSE 10.4 mph - N/A   Clear
9:35 PM 33.8 °F 24.8 °F 26.6 °F 75% 29.71 in 10.0 mi SSE 12.7 mph - N/A   Clear
9:55 PM 35.6 °F 29.9 °F 26.6 °F 70% 29.72 in 10.0 mi SSE 6.9 mph - N/A   Clear
10:15 PM 32.0 °F 24.8 °F 26.6 °F 80% 29.72 in 10.0 mi South 8.1 mph - N/A   Clear
10:35 PM 32.0 °F 23.0 °F 26.6 °F 80% 29.72 in 10.0 mi SSE 11.5 mph - N/A   Clear
10:55 PM 33.8 °F 25.3 °F 28.4 °F 81% 29.71 in 10.0 mi South 11.5 mph - N/A   Clear
11:15 PM 32.0 °F 23.0 °F 26.6 °F 80% 29.70 in 10.0 mi SSE 11.5 mph - N/A   Clear
11:35 PM 32.0 °F 24.2 °F 26.6 °F 80% 29.70 in 10.0 mi SSE 9.2 mph - N/A   Clear
11:55 PM 32.0 °F 24.8 °F 26.6 °F 80% 29.69 in 10.0 mi SSE 8.1 mph - N/A   Clear